Wind_Speed
12 12 11 11 12 13 13 14 14 15 17 17 18 18 19 18 19 17 16 16 16 18 18 16 16 17 18 18 18 18 19 19 20 21 22 22 22 22 22 22 22 22 23 23
12 10 10 11 11 12 13 14 13 13 14 16 15 16 17 17 18 19 19 17 16 15 16 17 17 17 18 19 19 19 19 20 21 21 22 23 24 24 24 23 23 23 22 22
10 10 11 11 11 12 12 14 13 13 14 16 15 15 17 18 18 19 18 17 16 15 14 15 16 17 18 19 19 20 21 21 21 22 22 23 24 24 24 24 24 24 23 22
10 10 11 11 11 12 12 13 13 13 14 15 15 16 17 20 21 21 20 18 17 16 14 15 16 16 18 19 20 20 21 21 21 21 22 22 23 23 23 23 23 21 21 21
9 10 11 12 12 12 13 12 13 14 14 16 16 17 17 19 20 20 20 18 17 16 15 16 16 17 18 19 20 21 21 22 22 22 23 23 22 23 23 22 21 21 21 20
8 10 11 12 12 13 12 12 14 15 15 17 17 19 19 20 19 21 21 19 18 18 17 17 18 19 19 20 20 21 22 23 23 23 23 23 23 23 22 21 21 21 21 21
8 10 11 12 13 14 14 14 14 14 15 17 17 20 20 19 19 19 20 20 20 18 17 17 17 19 20 21 22 23 23 24 24 24 24 24 24 23 22 21 20 21 22 22
7 9 11 13 14 15 14 15 16 16 17 17 18 20 20 19 20 21 20 20 21 20 19 19 19 20 21 22 23 23 23 24 25 25 25 25 25 24 23 22 22 22 22 21
8 9 12 14 15 15 13 15 17 18 18 18 18 19 20 20 20 20 21 21 21 22 22 21 20 20 22 22 23 23 23 24 24 26 26 26 26 25 24 23 23 22 22 22
9 8 11 13 14 15 15 16 17 18 19 19 19 19 19 19 19 20 20 19 18 19 20 20 21 21 22 22 23 23 23 24 24 25 26 26 26 26 25 25 24 23 23 23
10 10 10 12 13 14 14 15 16 16 16 16 17 17 18 18 18 19 19 19 19 19 19 19 20 22 23 23 23 23 23 24 25 25 26 26 26 26 25 25 25 24 24 23
12 12 12 12 12 13 14 14 14 15 16 16 17 17 17 17 17 17 16 17 18 19 20 21 21 21 22 22 23 23 24 24 24 24 24 26 26 25 25 25 24 24 24 24
12 12 12 12 13 12 13 13 13 15 16 16 16 17 17 18 18 18 18 17 18 19 20 21 22 22 22 23 24 24 24 24 24 24 24 25 24 24 25 24 24 24 24 24
11 12 12 12 11 10 11 12 13 14 15 15 15 16 16 16 17 17 17 18 20 21 21 20 21 22 22 23 24 25 24 24 24 24 24 23 23 22 23 24 23 23 23 24
9 10 10 10 10 10 11 10 11 12 12 13 14 15 16 17 18 18 19 20 20 21 21 21 20 21 22 22 23 23 23 23 23 22 21 21 21 22 22 23 23 23 23 23
8 8 9 9 10 10 8 7 9 10 11 12 13 14 16 17 18 19 20 21 20 20 20 21 20 21 21 22 22 22 22 22 21 20 20 21 21 22 22 23 24 23 23 22
7 7 7 8 9 9 8 8 9 9 11 12 14 14 16 18 19 20 20 20 20 19 19 20 20 20 20 20 21 21 21 21 21 21 21 21 21 21 22 22 22 22 22 22
6 6 6 6 7 8 8 8 8 9 10 12 13 14 15 16 17 19 19 19 19 18 17 18 19 18 19 19 19 19 19 19 20 20 20 20 21 21 20 20 20 20 20 20
5 5 5 5 6 7 7 7 8 9 9 10 12 13 13 14 16 17 17 18 18 17 17 17 18 18 18 18 17 17 17 18 18 18 18 18 18 18 18 19 19 19 19 18
4 4 4 5 6 6 6 6 7 8 8 9 11 12 12 13 15 16 16 16 16 16 17 17 18 17 16 16 16 15 16 16 16 16 16 16 16 16 17 16 16 16 16 16
3 4 4 5 5 5 5 6 6 7 8 9 10 11 12 13 14 15 15 16 16 16 17 17 17 16 15 14 14 14 14 13 13 13 13 13 13 13 13 13 13 13 13 13
3 3 3 4 4 4 4 5 6 7 8 9 10 11 12 13 14 15 15 16 16 16 17 17 16 14 13 12 11 11 11 11 11 11 11 10 10 10 10 10 11 11 11 11
3 3 2 3 3 3 4 5 6 7 8 9 10 10 12 13 14 15 15 16 16 16 16 16 15 13 12 10 10 9 10 10 10 9 8 8 8 9 10 10 10 9 9 9
3 3 3 3 3 3 4 5 5 6 7 8 9 10 11 12 13 14 15 16 16 16 16 15 14 13 11 9 9 9 10 10 9 8 8 8 9 10 10 9 9 8 7 7
2 2 3 3 3 3 4 4 5 7 8 8 9 9 10 12 13 13 14 15 15 15 15 15 14 13 11 10 9 9 10 10 9 9 9 9 10 10 9 9 9 9 8 7
2 1 2 2 2 2 3 4 5 6 8 8 8 9 10 11 13 13 14 15 15 15 15 14 13 13 12 12 11 10 10 11 11 10 10 10 10 9 9 10 10 9 8 7
Wind_Direction
197 200 204 206 208 216 219 225 232 235 237 244 249 254 260 261 261 260 257 255 255 255 256 259 264 271 277 281 283 284 287 287 287 288 288 286 286 286 286 286 285 281 277 275
191 190 194 195 200 214 222 227 233 235 238 245 251 256 265 268 266 265 261 259 260 259 258 261 266 269 275 278 281 283 285 287 287 287 287 288 289 287 286 285 283 280 277 274
192 191 193 199 209 219 227 235 243 247 252 249 253 256 266 272 270 274 270 262 257 257 263 268 269 270 273 275 278 282 283 285 286 287 287 288 288 287 285 283 282 279 277 273
197 200 204 210 215 225 235 240 243 242 247 254 256 264 273 278 274 276 273 265 258 251 256 263 267 270 273 276 279 282 283 283 284 285 287 287 288 287 285 284 281 278 276 274
207 212 215 220 221 230 237 238 239 243 249 256 261 266 272 278 276 276 275 264 261 258 261 266 267 270 274 279 281 283 283 283 283 284 286 286 286 286 285 282 280 279 276 272
216 226 228 227 229 235 236 238 238 241 247 257 264 269 272 277 278 274 273 269 262 265 268 269 270 270 273 278 281 281 282 283 284 285 286 286 285 286 286 281 277 276 275 273
230 231 232 236 238 238 236 233 235 242 248 258 264 267 273 276 277 279 278 273 270 271 272 275 272 272 277 279 281 281 282 283 283 283 284 285 285 286 285 282 278 276 275 272
240 233 237 239 239 240 236 238 242 249 253 259 263 268 278 282 284 284 283 280 271 273 274 277 273 275 280 282 283 283 284 283 283 283 283 283 285 285 284 282 279 276 275 273
255 247 244 247 243 241 242 242 247 255 261 264 268 274 280 283 288 291 286 283 278 272 272 276 274 275 280 283 285 286 287 287 286 284 282 283 283 284 283 281 279 277 274 271
264 257 248 247 246 243 246 249 250 256 264 265 271 279 283 285 289 290 289 286 282 277 278 282 281 281 283 287 288 289 290 288 286 284 282 282 282 281 281 280 278 277 274 270
267 263 253 246 248 251 250 253 255 261 266 274 280 288 291 292 289 288 287 290 291 285 284 289 288 287 288 288 288 289 290 289 287 287 284 281 281 280 280 280 278 276 274 272
267 262 257 251 251 252 256 260 259 261 269 277 287 292 294 299 299 298 296 293 295 293 292 294 293 290 289 289 290 290 290 290 289 288 285 282 280 279 280 281 279 276 274 273
261 258 257 254 253 252 257 262 267 271 273 278 288 296 301 302 301 300 300 298 299 300 301 296 293 289 290 290 292 292 291 291 289 287 284 282 282 280 279 279 278 277 276 275
258 257 255 252 250 253 261 263 265 271 275 280 285 295 301 304 302 302 303 302 300 301 301 297 293 291 291 292 293 292 291 292 289 286 282 280 280 280 279 278 276 275 275 275
255 255 252 247 247 257 270 268 269 273 281 285 290 294 300 303 305 306 303 302 302 301 301 299 296 294 292 293 293 293 292 293 291 287 283 280 278 278 278 278 277 276 276 276
246 248 250 246 252 259 267 270 276 281 285 290 293 294 297 301 304 305 306 306 305 305 305 304 301 297 295 295 295 293 292 291 291 288 284 281 279 277 276 278 278 276 275 274
243 245 243 244 255 265 268 275 282 287 287 296 300 302 303 304 306 308 309 309 310 309 308 308 305 301 301 299 298 296 293 291 290 287 285 282 282 280 280 279 276 276 275 274
237 240 241 243 250 259 268 279 286 293 299 305 310 309 308 310 311 313 314 314 316 314 314 313 310 307 306 303 301 299 296 295 291 288 288 287 287 284 282 279 277 277 277 278
233 243 244 242 259 271 278 289 298 302 306 309 312 314 315 317 318 319 320 320 319 321 322 320 318 313 310 307 304 301 300 297 293 291 291 291 290 287 285 282 281 281 280 280
231 239 249 258 270 281 289 297 304 311 314 316 318 320 323 327 327 327 329 329 326 328 328 328 326 322 317 315 312 308 306 304 300 298 294 293 293 290 288 286 285 286 284 282
235 246 259 271 279 287 302 312 316 319 326 327 328 332 334 335 335 335 335 337 334 334 335 333 332 330 326 321 319 314 312 311 310 309 305 302 300 299 296 293 290 289 288 286
251 259 263 262 272 290 317 324 327 326 330 334 337 339 343 344 343 342 342 343 342 341 340 339 339 338 334 330 327 323 321 321 320 318 316 312 308 309 309 305 302 301 297 293
245 264 281 280 289 300 310 327 334 332 329 335 338 343 349 350 350 349 349 349 348 348 349 349 348 348 347 344 340 337 336 335 335 334 332 328 323 324 323 319 317 313 308 305
251 255 275 286 292 303 311 326 340 339 337 341 345 350 353 354 354 353 353 353 354 356 359 360 359 359 359 359 358 356 357 357 355 353 350 346 342 340 339 340 338 332 325 318
245 251 266 276 295 311 329 347 350 355 355 353 356 357 358 359 358 357 357 0 2 4 6 7 9 12 15 14 11 9 7 7 5 0 355 354 354 354 353 350 349 343 336 333
218 250 278 297 310 328 343 359 359 0 4 5 3 4 5 5 5 4 5 7 9 11 12 14 17 19 21 21 20 20 19 14 10 8 7 4 3 1 356 354 356 1 2 5
Height
5840 5843 5845 5847 5848 5850 5851 5852 5853 5854 5855 5856 5856 5857 5857 5857 5857 5857 5858 5859 5859 5860 5859 5860 5860 5860 5859 5858 5857 5856 5855 5854 5853 5852 5850 5849 5847 5846 5844 5843 5842 5841 5840 5840
5839 5841 5843 5843 5844 5846 5847 5848 5849 5851 5852 5852 5853 5853 5853 5853 5853 5853 5854 5854 5855 5856 5856 5856 5856 5856 5855 5854 5853 5852 5851 5850 5849 5847 5845 5844 5842 5840 5839 5838 5837 5836 5835 5834
5837 5839 5839 5841 5842 5843 5844 5846 5847 5848 5848 5848 5849 5849 5849 5849 5849 5849 5849 5850 5850 5851 5852 5852 5852 5851 5850 5850 5849 5847 5846 5845 5843 5842 5840 5839 5837 5835 5834 5832 5831 5830 5829 5829
5834 5836 5837 5839 5840 5841 5842 5843 5844 5845 5845 5845 5846 5846 5846 5845 5844 5844 5844 5844 5845 5845 5847 5848 5847 5846 5846 5845 5843 5842 5840 5839 5838 5837 5835 5833 5832 5830 5828 5827 5825 5824 5823 5822
5833 5834 5835 5837 5838 5839 5840 5840 5841 5841 5842 5842 5842 5843 5843 5842 5840 5840 5840 5839 5839 5840 5841 5841 5841 5841 5841 5839 5838 5836 5835 5833 5832 5831 5830 5828 5826 5824 5822 5821 5819 5818 5817 5817
5832 5832 5833 5834 5836 5837 5837 5838 5838 5838 5839 5839 5839 5840 5840 5839 5838 5838 5836 5835 5835 5836 5835 5836 5836 5835 5835 5834 5832 5830 5829 5828 5826 5825 5823 5822 5820 5818 5816 5815 5814 5813 5812 5811
5830 5831 5831 5831 5833 5834 5835 5836 5836 5836 5836 5836 5837 5836 5836 5835 5835 5834 5833 5831 5830 5831 5831 5830 5830 5830 5829 5828 5826 5825 5823 5821 5820 5818 5817 5815 5814 5812 5810 5809 5808 5807 5806 5805
5827 5829 5829 5829 5829 5830 5831 5832 5833 5833 5833 5833 5833 5832 5833 5831 5831 5830 5829 5827 5826 5826 5825 5825 5824 5824 5824 5822 5820 5818 5817 5815 5813 5811 5810 5808 5807 5805 5804 5802 5801 5801 5799 5799
5824 5826 5826 5826 5827 5828 5828 5828 5829 5830 5830 5830 5830 5829 5828 5827 5827 5825 5824 5822 5821 5821 5820 5819 5817 5818 5817 5815 5813 5812 5810 5808 5806 5804 5802 5801 5800 5798 5797 5796 5795 5794 5793 5792
5822 5823 5824 5824 5824 5825 5826 5826 5826 5826 5826 5826 5826 5825 5825 5823 5822 5820 5819 5817 5816 5816 5815 5814 5812 5812 5810 5809 5807 5805 5803 5801 5799 5797 5795 5794 5792 5791 5790 5789 5788 5787 5786 5786
5819 5820 5821 5821 5821 5821 5822 5823 5823 5823 5823 5823 5822 5824 5820 5819 5817 5815 5814 5812 5811 5811 5810 5808 5807 5805 5803 5802 5800 5798 5796 5794 5792 5790 5788 5787 5785 5784 5783 5782 5781 5780 5779 5778
5815 5816 5816 5817 5817 5818 5818 5819 5819 5820 5820 5819 5819 5821 5816 5814 5811 5809 5808 5807 5806 5805 5804 5802 5801 5799 5797 5795 5793 5791 5789 5787 5784 5782 5781 5779 5778 5776 5775 5774 5773 5772 5772 5771
5812 5813 5814 5814 5816 5816 5815 5815 5816 5817 5816 5815 5815 5817 5812 5810 5808 5806 5804 5803 5801 5800 5798 5796 5794 5793 5791 5788 5786 5784 5781 5779 5777 5775 5773 5771 5770 5769 5768 5767 5766 5765 5764 5764
5809 5810 5811 5812 5812 5812 5813 5813 5813 5813 5812 5812 5811 5811 5809 5806 5804 5802 5799 5798 5797 5795 5793 5790 5788 5786 5784 5782 5779 5777 5774 5772 5769 5767 5765 5764 5763 5761 5760 5759 5758 5758 5757 5756
5806 5807 5807 5808 5809 5810 5810 5810 5810 5810 5809 5809 5808 5806 5805 5803 5800 5798 5796 5794 5792 5790 5787 5785 5782 5779 5777 5775 5773 5770 5767 5765 5762 5760 5758 5757 5755 5754 5753 5752 5751 5750 5749 5748
5804 5804 5805 5806 5806 5807 5807 5808 5808 5807 5806 5805 5804 5803 5801 5799 5797 5794 5792 5789 5787 5784 5781 5778 5776 5773 5771 5768 5765 5763 5760 5758 5755 5753 5752 5750 5749 5748 5746 5745 5744 5743 5742 5741
5802 5803 5803 5804 5804 5805 5805 5805 5805 5804 5804 5803 5801 5800 5797 5795 5792 5790 5787 5784 5781 5778 5775 5772 5769 5767 5764 5761 5758 5756 5754 5751 5749 5747 5746 5744 5742 5741 5739 5738 5737 5736 5735 5734
5801 5801 5802 5803 5804 5803 5805 5803 5802 5802 5800 5799 5797 5796 5793 5791 5788 5785 5782 5779 5776 5773 5770 5767 5764 5761 5758 5755 5753 5750 5748 5745 5743 5741 5739 5738 5736 5734 5733 5731 5730 5729 5728 5727
5799 5800 5801 5801 5801 5801 5801 5800 5799 5799 5798 5796 5794 5792 5790 5787 5785 5782 5778 5775 5772 5769 5765 5762 5759 5756 5753 5750 5747 5745 5742 5740 5738 5736 5734 5732 5730 5728 5727 5725 5724 5723 5722 5721
5798 5799 5800 5800 5799 5799 5800 5799 5797 5797 5796 5794 5792 5789 5787 5784 5782 5779 5775 5772 5769 5766 5762 5758 5755 5751 5748 5745 5742 5740 5738 5735 5733 5731 5729 5727 5725 5723 5722 5720 5719 5717 5716 5715
5798 5798 5798 5798 5797 5798 5798 5797 5796 5796 5795 5792 5789 5787 5784 5781 5779 5776 5772 5769 5766 5762 5759 5755 5751 5747 5744 5741 5739 5736 5734 5731 5729 5727 5725 5723 5721 5719 5718 5716 5714 5713 5712 5710
5797 5797 5797 5796 5796 5798 5796 5795 5795 5794 5791 5789 5787 5784 5782 5779 5776 5773 5770 5766 5763 5759 5756 5752 5748 5744 5741 5738 5736 5733 5731 5729 5727 5725 5722 5721 5719 5717 5715 5713 5711 5709 5708 5706
5795 5796 5796 5796 5797 5796 5794 5794 5792 5791 5789 5787 5785 5783 5780 5777 5774 5771 5768 5764 5761 5757 5753 5749 5746 5742 5739 5736 5734 5732 5730 5727 5725 5723 5721 5719 5717 5715 5713 5711 5708 5707 5705 5704
5794 5794 5794 5794 5794 5793 5793 5792 5791 5790 5788 5786 5784 5782 5779 5777 5774 5770 5767 5763 5759 5756 5752 5748 5744 5741 5738 5735 5733 5731 5729 5726 5724 5722 5720 5718 5716 5714 5711 5709 5707 5705 5703 5702
5793 5793 5793 5792 5792 5792 5791 5791 5790 5788 5787 5785 5783 5781 5779 5776 5773 5770 5766 5762 5759 5755 5751 5748 5744 5741 5738 5735 5733 5731 5729 5726 5724 5722 5720 5717 5715 5713 5710 5708 5706 5704 5702 5700
5791 5792 5792 5791 5791 5791 5791 5790 5789 5788 5786 5784 5782 5780 5778 5775 5772 5769 5766 5762 5759 5755 5751 5748 5745 5742 5739 5736 5734 5731 5729 5727 5724 5722 5719 5717 5715 5712 5710 5708 5706 5703 5702 5700